Lac la Martre, Northwest Territories

8:19 PM MST on February 22, 2018 (GMT -0700)
Lac la Martre

Weather History for CWMT - October, 2012

Change the Weather History Date:

Friday, October 12, 2012

  Actual Average Record
Temperature  
Mean Temperature 48 °F -  
Max Temperature 86 °F - - ()
Min Temperature 10 °F - - ()
Degree Days  
Heating Degree Days 17    
Moisture  
Dew Point 24 °F    
Average Humidity 79    
Maximum Humidity 99    
Minimum Humidity 29    
Precipitation  
Precipitation 0.00 in - - ()
Sea Level Pressure  
Sea Level Pressure 29.87 in    
Wind  
Wind Speed 3 mph ()    
Max Wind Speed 6 mph    
Max Gust Speed -    
T = Trace of Precipitation, MM = Missing Value Source: Averaged Metar Reports

Daily Weather History Graph

Daily Weather History Graph

Search for Another Location

Airport or City:

Trip Planner

Search our weather history database for the weather conditions in past years. The results will help you decide how hot, cold, wet, or windy it might be!

Date:

Astronomy

Oct. 12, 2012 Rise Set
Actual Time 8:29 AM MDT 6:39 PM MDT
Civil Twilight 7:42 AM MDT 7:26 PM MDT
Nautical Twilight 6:49 AM MDT 8:19 PM MDT
Astronomical Twilight 5:54 AM MDT 9:13 PM MDT
Moon 4:27 AM MDT (10/12) 5:30 PM MDT (10/12)
Length of Visible Light 11h 43m
Length of Day
10h 10m
Waning Crescent, 10% of the Moon is Illuminated
Oct 12
Waning Crescent
Oct 15
New
Oct 21
First Quarter
Oct 29
Full
Nov 6
Last Quarter

Hourly Weather History & Observations

Time (MDT) Temp. Windchill Dew Point Humidity Pressure Visibility Wind Dir Wind Speed Gust Speed Precip Events Conditions
12:00 AM 32 °F - 28 °F 77% 29.98 in - SW 4.6 mph - -  
12:00 AM 31.6 °F 27.0 °F 27.5 °F 85% 29.98 in - SW 4.6 mph - N/A   Unknown
2:00 AM 27.3 °F - 18.9 °F 70% 29.96 in - SW 1.2 mph - N/A   Unknown
3:00 AM 16.3 °F - 15.4 °F 96% 29.96 in - Calm Calm - N/A   Unknown
5:00 AM 85.8 °F - 79.9 °F 82% 29.91 in - WSW 2.3 mph - N/A   Unknown
6:00 AM 24 °F - 21 °F 85% 29.91 in - SW 4.6 mph - -  
7:00 AM 21.6 °F - -6.2 °F 29% 29.91 in - South 2.3 mph - N/A   Unknown
8:00 AM 23.5 °F - 21.7 °F 93% 29.90 in - NNW 2.3 mph - N/A   Unknown
9:00 AM 18.0 °F - 15.8 °F 91% 29.89 in - SSW 1.2 mph - N/A   Unknown
11:00 AM 23.4 °F 16.2 °F 22.3 °F 96% 29.88 in - SSW 5.8 mph - N/A   Unknown
12:00 PM 26 °F - 21 °F 74% 29.87 in - SSW 5.8 mph - -  
12:00 PM 26.2 °F 19.6 °F 21.0 °F 81% 29.87 in - SSW 5.8 mph - N/A   Unknown
1:00 PM 25.9 °F 20.3 °F 18.9 °F 75% 29.86 in - SSW 4.6 mph - N/A   Unknown
2:00 PM 27.7 °F 21.3 °F 16.9 °F 64% 29.86 in - SSW 5.8 mph - N/A   Unknown
3:00 PM 19.9 °F 12.1 °F 12.4 °F 72% 29.84 in - SSW 5.8 mph - N/A   Unknown
4:00 PM 27.3 °F 20.9 °F 16.2 °F 63% 29.79 in - SSE 5.8 mph - N/A   Unknown
6:00 PM 26.8 °F 22.8 °F 18.0 °F 69% 29.81 in - ESE 3.5 mph - N/A   Unknown
7:00 PM 26.6 °F 22.6 °F 24.6 °F 92% 29.80 in - East 3.5 mph - N/A   Unknown
8:00 PM 22.5 °F 16.3 °F 16.2 °F 77% 29.80 in - ESE 4.6 mph - N/A   Unknown
9:00 PM 86.2 °F - 83.8 °F 93% 29.76 in - ESE 3.5 mph - N/A   Unknown
10:00 PM 10.4 °F 2.2 °F 6.4 °F 84% 29.80 in - East 4.6 mph - N/A   Unknown
11:00 PM 26.6 °F 22.6 °F 26.4 °F 99% 29.78 in - East 3.5 mph - N/A   Unknown